Flag for U.S.A. Weather past 2 weeks in Los Angeles, California, U.S.A.

Now
69 °F

Clear.


Feels Like: 69 °F
Forecast: 62 / 80 °F
Wind: No wind

Location: Los Angeles / USC Campus Downtown

Current Time: Sep 5, 2015 at 12:48:34 AM

Latest Report: Sep 4, 2015 at 11:47 PM


Visibility: 10 mi

Pressure: 29.86 "Hg

Humidity: 70%

Dew point: 59 °F

Location of Los AngelesLocation

Historic Weather in Los Angeles — Graph

°F

Los Angeles temperature yesterday

Maximum temperature yesterday: 78 °F (at 12:47 PM)
Minimum temperature yesterday: 67 °F (at 12:47 AM)
Average temperature yesterday: 72 °F

Past Weeks' High & Low Weather Summary

 TemperatureHumidityPressure
High96 °F (Aug 28, 11:47 AM)87% (Aug 23, 4:47 AM)29.97 "Hg (Aug 23, 4:47 AM)
Low66 °F (Aug 23, 4:47 AM)28% (Aug 28, 11:47 AM)29.79 "Hg (Aug 28, 6:47 PM)
Average75 °F65%29.88 "Hg
* Reported Aug 20 11:47 PM — Sep 4 11:47 PM, Los Angeles, Weather by CustomWeather, © 2015

Note: Actual official high and low records may vary slightly from our data, if they occured in-between our weather recording intervals... More about our weather records

Advertising

Los Angeles weather history for previous 24 hours

 ConditionsComfort  
Time TempWeatherWind HumidityBarometerVisibility
11:47 PM
Fri, Sep 4
69 °FClear.No wind70%29.86 "Hg10 mi
10:47 PM69 °FClear.No wind68%29.85 "Hg10 mi
9:47 PM69 °FClear.No wind68%29.84 "Hg10 mi
8:47 PM70 °FClear.No wind64%29.83 "Hg10 mi
7:47 PM71 °FSunny.5 mph61%29.82 "Hg10 mi
6:47 PM72 °FSunny.No wind57%29.82 "Hg10 mi
5:47 PM75 °FSunny.6 mph52%29.82 "Hg10 mi
4:47 PM76 °FSunny.No wind50%29.82 "Hg10 mi
3:47 PM76 °FSunny.6 mph50%29.82 "Hg10 mi
2:47 PM77 °FSunny.7 mph48%29.83 "Hg10 mi
1:47 PM77 °FPassing clouds.No wind50%29.84 "Hg10 mi
12:47 PM78 °FPartly sunny.3 mph48%29.85 "Hg10 mi
11:47 AM77 °FSunny.No wind47%29.87 "Hg10 mi
10:47 AM73 °FOvercast.3 mph48%29.89 "Hg10 mi
9:47 AM72 °FOvercast.No wind53%29.88 "Hg10 mi
8:47 AM71 °FOvercast.6 mph53%29.88 "Hg10 mi
7:47 AM70 °FOvercast.3 mph57%29.88 "Hg10 mi
6:47 AM69 °FOvercast.3 mph59%29.86 "Hg10 mi
5:47 AM69 °FOvercast.5 mph63%29.84 "Hg10 mi
4:47 AM69 °FOvercast.5 mph66%29.84 "Hg10 mi
3:47 AM68 °FOvercast.3 mph68%29.84 "Hg10 mi
2:47 AM68 °FPassing clouds.3 mph70%29.84 "Hg10 mi
1:47 AM67 °FOvercast.No wind68%29.84 "Hg10 mi
12:47 AM67 °FClear.No wind68%29.85 "Hg10 mi
Weather by CustomWeather, © 2015

See weather overviewHow to use our weather pages